Location: Martley
(52.2333°N, 2.3667°W)
Time: 10:41:34
(UTC+00:00)

Cosmos 1666 - Pass Details

Date: 11 December 2019
Orbit: 498 x 521 km, 82.5° (Epoch: 24 January)

Event Time Altitude Azimuth Distance (km) Brightness Sun altitude
Rises 06:49:16 0° 181° (S) 2,624 6.6 -11.2°
Reaches altitude 10° 06:51:24 10° 178° (S) 1,739 5.7 -10.9°
Maximum altitude 06:55:10 64° 97° (E) 574 3.2 -10.4°
Drops below altitude 10° 06:58:57 10° 16° (NNE) 1,741 5.3 -9.9°
Sets 07:01:05 0° 14° (NNE) 2,628 6.2 -9.6°
